CZ-6A DEB, 55215

Orbit data source: Space-Track

CZ-6A DEB, 55215 is space debris in SSO originally from a launch on Fri, 11 Nov 2022 UTC launched from the Taiyaun Space Center, China (TSC). Debris objects in space refer to the collection of defunct objects orbiting the Earth. Examples of debris include non-operational satellites, rocket bodies, and fragments generated from explosions, collisions, or faulty payload assembly.

Loading next visibility...
Identifier
55215, 2022-151WG
Orbit
SSO
Country
Flag of CNCN / PRC
Related business
Manufacturer
SAST
Mission
Spacecraft
Bus & Motor
Unknown
Mass
Unknown
Launch date (UTC)
2022-11-11 (4 years ago)
Launch vehicle
Unknown
Launch site
Taiyaun Space Center, China (TSC)
Object type
Payload
Rocket body
Debris
Shape & HBR
Unknown shape, 0.1 m
Radar Cross Section
Medium (>0.1 m² and <1 m²)

Expand to show TLE details & history
Last TLE update: 2 days ago

TLE from 2 days ago
0 CZ-6A DEB
1 55215U 22151WG  26171.14781560  .00013385  00000-0  18193-2 0  9992
2 55215  98.6330 234.6626 0049636 290.9537  68.6364 14.78080830185153
Epoch: 2026-06-20T03:32Z
TLE epoch observation values (Epoch: 2026-06-20T03:32:51.267Z)
Latitude
-0.00004°
Longitude
-86.91761°
Altitude
625.851 km
Speed
7.552 km/s
True Right ascension
15h 38m 39s
True Declination
0° 00' 00"
Sunlit
Object was in full shadow at epoch
Visualization orbit readout
Latitude
Unknown
Longitude
Unknown
Altitude
Unknown
Speed
Unknown
Apparent Right ascension
Unknown
Apparent Declination
Unknown
Sunlit
N/A
Visualization observer readout
Local Sidereal Time
21:32:56
Azimuth
Unknown
Elevation
Unknown
Doppler factor
Unknown
Orbital elements
Apogee altitude
667.264 km
Perigee altitude
597.668 km
Semi-major axis
7,010.603 km
Eccentricity
0.00496
Inclination
98.633°
RAAN
234.6626°
Arg. of periapsis
290.9537°
True anomaly
69.1673°
Mean anomaly
68.6364°
Eccentric anomaly
68.90173°
Mean motion
3.69752 °/min
Orbital period
97.36 mins
BSTAR
0.0018193
Loading maneuver chart data...
Computing Atmospheric mass density...
Loading historical data...
Loading historical data...
Loading historical data...
Loading historical data...
Loading historical data...
Loading historical data...
Loading historical data...

Documentation

Showing up to 5 results
|